Location: Putah Creek Observatory
(38.7021°N, 122.3865°W)
Time: 08:41:21
(UTC-07:00)

Daily predictions for brighter satellites

Satellite Brightness Start Highest point End
(mag) Time Altitude Azimuth Time Altitude Azimuth Time Altitude Azimuth
BREEZE-M DEB (TANK) 3.5 20:31:50 10° WNW 20:35:22 84° SW 20:47:35 10° SE
ALOS 2.3 20:48:29 10° SSE 20:53:09 85° ENE 20:57:51 10° N
BREEZE-M R/B 4.1 20:51:07 10° W 20:53:48 29° SW 20:58:08 10° SSE
Atlas Centaur 2 4.0 20:48:48 10° SSW 20:54:34 23° SSE 21:00:49 10° ESE
Cosmos 1939 Rocket 4.0 20:56:05 10° SE 20:59:41 29° ENE 21:03:19 10° N
COSMOS 2455 4.5 20:57:57 10° SE 21:00:27 13° E 21:02:58 10° ENE
Cosmos 2237 Rocket 2.6 20:55:13 10° SSW 21:00:48 69° WNW 21:06:26 10° NNE
Envisat 4.0 20:57:35 10° SE 21:01:57 30° ENE 21:06:20 10° N
ERS-1 Rocket 3.1 20:58:20 10° SSE 21:03:15 60° ENE 21:08:12 10° N
Cosmos 1110 Rocket 4.3 20:58:25 10° N 21:03:36 52° ENE 21:08:42 10° SE
CZ-2D R/B 4.0 20:59:58 10° S 21:03:47 54° W 21:07:38 10° NNW
Cosmos 2285 Rocket 4.4 21:02:30 10° N 21:08:35 47° ENE 21:14:33 11° SE
Cosmos 1726 Rocket 3.7 21:04:42 10° N 21:09:08 60° E 21:13:29 10° SSE
Cosmos 2278 Rocket 2.4 21:03:56 10° NNW 21:09:36 74° WSW 21:15:15 10° SSE
SL-24 R/B - RUBIN 2 4.2 21:06:16 10° SSW 21:11:33 84° ESE 21:17:36 10° NNE
YAOGAN 11 4.3 21:08:13 10° S 21:12:35 75° WSW 21:16:56 10° NNW
Lacrosse 5 rocket 1.6 21:10:11 10° SW 21:13:59 69° NW 21:18:00 10° NE
GEOS 3 Rocket 4.4 21:09:39 10° SSE 21:14:46 50° WSW 21:19:51 10° NW
Cosmos 2233 Rocket 4.3 21:10:17 10° NNW 21:16:31 71° W 21:22:40 10° S
Cosmos 2058 Rocket 3.2 21:13:27 10° N 21:17:47 56° E 21:22:03 10° SSE
Abrixas rocket 3.8 21:15:33 10° NW 21:18:38 30° NNE 21:21:42 10° E
USA 234 3.9 21:15:22 10° ESE 21:21:36 49° NE 21:27:52 10° NW
Cosmos 1666 3.5 21:18:01 10° NNE 21:21:37 34° ENE 21:24:20 15° SE
Aureole 2 Rocket 3.3 21:18:11 10° S 21:21:57 37° ESE 21:25:26 10° NE
Cosmos 1500 4.4 21:19:04 10° NNW 21:22:46 44° W 21:26:28 10° SSW
Cosmos 2219 Rocket 4.3 21:17:56 10° WSW 21:22:53 31° WNW 21:27:50 10° N
OAO 3 Copernicus 4.5 21:18:16 10° W 21:23:13 57° S 21:27:34 13° ESE
Cosmos 1464 Rocket 4.1 21:17:43 10° N 21:23:47 60° E 21:29:52 10° SSE
Cosmos 2369 Rocket 4.4 21:22:09 10° NNE 21:23:48 11° NE 21:25:26 10° ENE
Okean 2 3.4 21:20:54 10° S 21:25:01 65° E 21:29:12 10° NNE
Cosmos 1602 Rocket 4.4 21:22:08 12° SSE 21:25:49 33° E 21:29:50 10° NNE
deb Chang Zheng 4 3.6 21:21:26 10° NNE 21:25:51 86° WNW 21:30:13 10° SSW
SL-16 R/B 2.2 21:21:28 10° SSW 21:27:07 87° ESE 21:32:48 10° NNE
Cosmos 1743 3.1 21:27:12 10° NNW 21:31:01 63° W 21:34:48 10° S
H-2A R/B 4.2 21:32:49 10° ENE 21:33:39 10° ENE 21:34:29 10° NE
Meteor 1-23 Rocket 4.2 21:31:03 10° S 21:36:40 89° W 21:42:24 10° N
Cosmos 1461 4.2 21:34:00 10° N 21:37:46 28° NE 21:40:09 17° E
CZ-2C R/B 2.7 21:36:34 10° SSW 21:38:31 23° W 21:40:27 10° NW
Cosmos 494 Rocket 4.0 21:33:38 10° SSW 21:38:45 86° WNW 21:43:53 10° NNE
PSLV R/B 4.1 21:36:12 10° SW 21:39:22 31° SSE 21:40:53 22° ESE
Cosmos 2034 Rocket 4.1 21:34:45 10° N 21:41:05 63° E 21:46:17 15° SSE
SPOT 1/Viking Rocket 4.4 21:38:24 18° ESE 21:41:30 34° ENE 21:46:07 10° N
UNK 4.4 21:36:17 10° NNE 21:41:33 53° ESE 21:47:05 10° S
H-2A R/B 2.8 21:45:47 10° S 21:49:50 48° W 21:54:01 10° NNW
MetOp-B 4.2 21:51:24 21° SSE 21:54:57 64° ENE 22:00:16 10° N
Cosmos 1603 3.7 21:50:20 10° S 21:55:49 57° ESE 22:01:18 10° NNE
CZ-4 SHROUD 3.4 21:55:04 26° S 21:56:41 71° WSW 21:59:51 10° NNW
Cosmos 1626 Rocket 3.5 21:55:59 15° S 21:59:40 81° E 22:04:07 10° N
SPOT 5 2.6 21:56:47 21° S 21:59:48 84° WSW 22:04:11 10° NNW
Meteor 2-9 Rocket 4.5 21:56:39 10° NNW 22:02:18 71° W 22:07:10 15° S
Cosmos 1302 Rocket 4.0 22:03:47 10° NNW 22:09:01 79° WSW 22:12:06 25° S
ATLAS CENTAUR R/B 4.5 22:07:09 10° W 22:11:03 22° NW 22:15:00 10° N
SeaSat 1 2.9 22:12:45 23° S 22:15:42 54° WSW 22:20:33 10° NW
APEX 3.8 22:12:04 10° NNW 22:16:08 69° WSW 22:18:35 30° S
Cosmos 2228 4.1 22:14:30 10° NNW 22:18:41 43° W 22:21:46 17° SSW
CZ-4B R/B 3.5 22:14:48 10° NNE 22:19:53 84° WNW 22:24:15 15° SSW
Cosmos 1943 3.7 22:21:12 34° SE 22:22:27 38° ESE 22:27:40 10° NE
YAOGAN 6 2.6 22:22:00 48° S 22:22:56 85° WSW 22:26:42 10° NNW
Meteor 2-12 Rocket 4.4 22:17:43 10° N 22:23:50 74° E 22:26:47 32° SSE
BREEZE-M DEB (TANK) 3.4 22:26:01 10° WSW 22:29:40 40° NW 22:31:00 19° NNE
CZ-4C R/B 3.7 22:29:37 47° ESE 22:30:25 55° ENE 22:34:31 10° N
Terra 2.7 22:30:52 31° E 22:31:47 33° ENE 22:36:02 10° N
Cosmos 1943 Rocket 4.0 22:36:49 10° NNE 22:40:26 17° NE 22:42:31 14° ENE
SL-08 RB Rocket 3.6 22:39:27 53° SSE 22:40:31 83° ENE 22:45:06 10° N
IGS 5A 4.3 22:42:30 35° ENE 22:42:34 35° ENE 22:46:22 10° N
Atlas Centaur 2 3.4 22:35:58 10° SW 22:43:29 42° SSE 22:46:00 35° SE
Cosmos 407 Rocket 3.9 22:45:24 41° ESE 22:45:27 41° ESE 22:50:23 10° NNE
COSMOS 2455 2.8 22:39:31 10° SSW 22:45:31 86° WNW 22:51:35 10° NNE
USA 81 4.0 22:42:35 10° N 22:47:54 89° E 22:49:27 47° S
Milstar 3 Cent rocket 4.1 22:46:51 10° SW 22:48:41 12° SW 22:48:41 12° SW
Cosmos 1758 Rocket 3.8 22:50:23 52° E 22:50:23 52° E 22:54:28 10° NNE
Cosmos 1953 4.3 22:50:45 10° NNE 22:52:49 18° ENE 22:52:49 18° ENE
CARTOSAT-1 3.6 22:54:54 60° E 22:55:01 60° ENE 22:59:18 10° N
SAR-Lupe-2 4.0 22:55:47 55° NNE 22:55:47 55° NNE 22:58:48 10° N
Abrixas rocket 3.6 22:52:34 10° WNW 22:54:50 33° W 22:54:50 33° W
ATLAS 3B R/B 2.9 22:52:20 30° S 22:56:17 60° ESE 23:03:43 10° NE
Lacrosse 4 Rocket 2.9 23:03:16 24° NE 23:03:16 24° NE 23:05:08 10° NE
USA 234 3.7 23:02:32 38° S 23:04:33 49° SW 23:10:54 10° NW
Cosmos 2369 Rocket 2.1 23:03:12 10° NNW 23:08:52 72° ENE 23:09:48 60° ESE
Cosmos 1825 Rocket 4.2 23:08:13 43° WSW 23:09:11 52° W 23:13:33 10° N
SL-24 R/B 4.3 23:06:23 10° N 23:11:17 82° E 23:11:46 72° SSE
H-2A R/B 1.8 23:11:45 73° S 23:12:15 88° WSW 23:17:17 10° NNW
ARGOS 4.0 23:11:14 33° SW 23:13:00 43° W 23:18:09 10° NNW
Cosmos 1461 4.5 23:13:21 10° NW 23:16:39 25° WSW 23:16:39 25° WSW
Meteor 1-22 Rocket 4.2 23:13:21 10° NNW 23:18:52 77° W 23:19:55 60° SSW
Cosmos 1346 Rocket 3.5 23:21:11 51° WNW 23:21:11 51° WNW 23:24:41 10° N
Cosmos 1992 Rocket 4.3 23:18:09 10° NNW 23:23:15 54° WSW 23:23:49 51° SW
COSMOS 2406 4.4 23:26:15 28° ENE 23:26:15 28° ENE 23:29:54 10° NE
USA 238 DEB 4.3 23:26:50 38° E 23:26:50 38° E 23:32:39 10° NE
USA 238 4.3 23:26:58 38° E 23:26:58 38° E 23:32:44 10° NE
Nadezhda 4 Rocket 4.2 23:26:46 50° ESE 23:27:15 51° E 23:33:21 10° NNE
DMSP B5D2-2 4.2 23:22:39 10° N 23:27:56 73° WNW 23:28:51 59° SW
Cosmos 2263 4.1 23:22:33 10° NNW 23:28:11 75° ENE 23:28:39 70° ESE
Cosmos 1758 4.4 23:33:13 10° N 23:36:08 41° NNE 23:36:08 41° NNE
Cosmos 1842 4.4 23:43:13 42° NNW 23:43:13 42° NNW 23:46:01 10° N
Spot 4 4.3 23:45:42 51° W 23:45:42 51° W 23:50:08 10° NNW
Cosmos 676 Rocket 4.3 23:51:59 59° W 23:52:28 62° WNW 23:57:46 10° NNE
